William R. Fairchild International Airport

Airport
ICAO code: 
KCLM
Summary
ICAO Region: 
NAM
Territory: 
Location: 
Port Angeles, Washington,
Coordinates: 
Aerial View: 
48° 6' 59.337" N, 123° 29' 35.671" W
Airport WX: 
Fog
Metar
Observation
KCLM 170353Z AUTO 00000KT 1 1/4SM BR OVC002 05/04 A3013 RMK AO2 SLP204 T00500039
Station
Port Angeles, William R. Fairchild International Airport
Date/Time
2022-01-17 03:53:00
Wind direction
Wind speed
00 kts
Lowest cloud amount
overcast
Temperature
5°C
Dew point
3.9°C
Humidity
92%
Weather condition
mist

Description

William R. Fairchild International Airport is a public use airport located within the city limits of Port Angeles, in Clallam County, Washington.

Climatology

Temperate Marine climate/Oceanic climate (Köppen climate classification Cfb). Moderately cool summer and comparatively warm winter.

Runways

Designator Length Width Surface Rops
13/31 989 15 ASP Yes/Yes
8/26 1935 46 ASP Yes/Yes
Airport map: 
Aerial View: 

SKYbrary Partners:

Safety knowledge contributed by: